Wetbulb
58.39 58.55 58.59 58.29 57.76 57.72 57.41 57.14 56.75 56.84 57.36 57.59 57.50 57.57 57.67 56.49 54.09 46.21 42.93 47.37 52.90 60.92 61.67 53.66 49.97 49.47 49.24 46.11 44.82 42.40 32.31 28.79 30.80 32.46 33.91 39.20 35.97 39.61 41.96 39.34 40.32 41.28 40.78 43.41 45.27
57.94 58.24 58.28 58.27 57.43 57.22 56.83 56.19 56.21 56.51 56.72 57.02 57.41 57.66 55.97 54.98 44.64 43.07 53.56 60.89 62.27 63.02 48.36 46.96 45.99 47.23 42.32 41.60 41.69 37.25 32.05 32.59 36.55 36.32 36.41 38.13 36.62 40.22 39.47 38.95 38.61 38.50 41.80 43.96 42.80
57.59 57.60 57.79 57.85 57.42 56.83 56.47 55.72 55.82 56.36 56.53 56.68 57.22 58.03 55.47 50.34 41.60 41.15 57.60 61.29 62.75 58.41 48.50 47.08 46.61 44.42 40.03 38.98 37.37 35.61 32.54 35.83 37.05 39.21 38.15 36.53 36.51 39.88 38.25 34.70 37.58 37.41 37.54 39.58 39.84
56.89 56.91 57.30 57.69 57.16 56.64 55.61 55.18 55.27 56.16 56.19 56.65 58.05 58.18 54.96 43.99 35.15 43.07 61.27 61.32 61.12 53.20 48.99 46.19 45.06 40.20 36.05 35.68 36.03 35.67 36.03 36.74 35.19 37.26 36.81 34.68 35.81 36.69 37.33 37.19 39.38 39.34 39.78 38.77 39.06
56.06 56.08 56.57 56.83 56.72 56.21 55.48 54.84 54.87 55.09 55.70 56.59 57.50 57.37 46.04 39.84 39.74 46.40 59.61 55.29 49.15 49.50 45.63 45.35 42.72 39.63 36.23 36.20 38.34 34.81 34.85 36.54 37.62 37.93 36.34 39.14 35.63 36.47 37.01 38.85 39.65 40.60 41.44 39.42 38.66
55.79 55.65 55.75 55.90 56.12 55.93 55.21 54.35 54.10 54.32 55.06 56.28 56.95 54.94 41.51 37.72 44.65 44.40 45.93 47.43 46.91 46.36 45.24 44.90 42.72 42.65 38.69 37.40 35.43 36.30 36.11 34.81 36.76 35.78 36.61 36.37 35.08 36.08 38.08 40.05 39.35 39.61 38.90 38.94 38.43
55.67 55.40 55.38 55.53 55.33 55.43 55.20 54.74 54.26 54.37 55.33 56.30 56.82 48.67 41.41 39.78 43.69 43.16 45.47 43.69 44.23 46.25 44.32 44.52 44.79 42.24 38.95 37.36 38.24 37.21 33.93 34.69 33.73 33.63 33.02 36.62 31.49 35.56 37.21 39.00 38.57 37.93 37.67 38.40 39.01
55.65 55.33 54.98 54.68 54.47 54.27 54.08 53.85 54.18 54.76 55.80 56.11 56.12 43.80 39.69 46.30 45.03 45.92 43.75 44.07 46.87 45.75 46.08 45.68 45.24 42.31 39.61 39.02 38.11 34.46 32.86 27.84 33.55 35.29 34.24 33.56 30.29 34.81 36.10 36.08 36.07 36.82 36.91 36.70 36.69
55.41 55.35 54.94 54.31 53.93 53.67 53.25 53.12 54.26 55.51 56.38 55.18 46.70 42.13 38.27 51.24 44.49 45.06 43.45 43.40 44.32 45.45 45.58 48.59 44.29 38.99 38.46 33.68 30.25 30.86 25.93 28.70 30.21 35.60 33.53 31.76 31.36 34.15 35.33 35.77 35.06 34.62 34.73 35.11 35.25
55.18 55.33 54.92 54.54 54.04 53.64 53.04 52.77 54.36 53.41 52.69 51.05 47.52 41.08 43.54 42.51 44.72 45.65 44.52 45.81 43.98 44.16 43.31 42.14 37.55 34.16 32.89 31.52 26.67 28.70 28.76 26.33 27.84 31.61 32.66 29.57 31.52 34.16 34.70 33.71 35.33 33.25 33.35 33.30 32.95
55.04 54.92 54.70 54.54 54.34 53.60 50.29 49.66 46.10 44.45 43.59 40.20 40.97 41.33 42.38 44.65 45.89 45.01 46.04 45.55 44.49 42.76 36.30 37.40 33.45 30.05 31.93 33.89 35.26 34.50 32.60 29.07 28.65 34.56 32.79 32.63 31.04 31.81 33.53 31.18 32.04 33.10 31.39 31.62 32.78
54.63 54.51 54.59 54.35 53.88 53.49 51.15 49.65 49.94 48.86 38.95 44.51 44.65 44.05 45.96 44.76 42.40 44.02 45.61 43.15 41.27 36.30 37.19 34.60 31.54 34.69 37.52 37.94 36.65 34.93 31.81 29.26 32.94 35.79 32.73 30.04 32.04 31.11 33.42 33.13 32.74 32.76 33.12 33.17 31.76
53.99 53.93 53.77 53.40 53.11 53.65 52.22 50.94 55.34 51.77 39.80 43.91 45.06 44.04 44.16 44.66 40.35 41.38 43.04 41.41 38.93 36.23 34.89 32.73 35.19 39.46 38.26 34.86 35.82 32.40 30.81 29.62 30.81 33.27 32.52 29.83 30.00 29.44 34.33 35.06 36.37 34.90 34.45 33.80 34.01
53.41 53.28 52.80 52.49 52.04 52.82 51.10 55.79 54.69 52.74 36.06 40.78 42.59 44.20 45.75 44.69 41.85 43.30 43.55 41.70 40.36 36.37 36.69 34.63 37.85 38.28 36.11 35.50 35.00 32.16 34.96 35.08 33.95 30.56 26.76 31.15 21.96 30.00 32.60 33.69 35.13 36.41 34.66 33.58 33.18
52.86 53.01 52.45 52.56 49.41 50.49 53.91 56.11 56.46 53.22 27.25 41.83 41.57 47.34 45.47 43.05 42.34 42.76 43.76 43.12 37.81 38.50 37.81 34.67 35.54 35.45 34.62 35.61 36.70 34.93 37.03 35.17 33.91 29.22 27.71 29.79 25.99 28.80 32.98 33.77 34.52 35.53 36.25 33.29 32.96
52.65 52.58 52.31 53.51 53.63 53.72 56.84 57.14 53.75 37.59 27.02 40.34 42.79 42.66 42.28 42.55 41.87 42.29 42.97 44.02 42.11 39.47 37.12 34.87 37.21 35.87 34.86 37.77 37.49 38.21 34.79 33.06 31.58 28.49 21.62 28.99 27.69 24.52 30.21 34.06 34.79 35.28 36.20 35.77 32.93
52.01 51.90 53.11 56.40 50.55 56.00 56.50 49.69 35.58 27.18 42.97 38.33 40.37 42.63 41.81 40.52 41.05 41.46 40.35 37.41 34.35 32.91 33.60 34.14 34.84 35.89 38.66 35.02 37.68 35.11 30.46 24.52 24.24 21.23 21.18 31.83 26.02 28.50 35.72 36.71 36.83 36.44 36.35 34.78 33.32
51.42 51.20 52.04 55.35 54.74 56.34 51.65 42.27 25.60 40.54 39.87 42.18 41.62 41.55 40.17 40.74 40.28 40.70 38.91 35.51 36.73 35.58 33.45 31.50 30.85 34.76 38.30 35.11 31.85 32.17 30.88 22.47 22.48 19.18 21.13 32.32 21.60 30.12 39.31 38.60 38.60 39.13 36.88 34.64 32.54
51.47 52.64 53.63 56.41 56.34 55.93 45.18 30.15 34.59 39.13 40.92 40.82 40.55 38.40 38.41 40.25 39.89 39.38 36.93 35.59 35.09 34.94 32.68 31.00 32.47 35.58 37.77 38.02 36.34 33.33 28.84 32.77 27.54 27.49 23.16 24.98 32.73 37.43 38.56 37.94 38.66 39.07 38.05 34.19 32.13
46.91 50.62 51.34 54.29 56.06 52.55 41.99 38.37 41.58 42.54 42.45 42.08 37.72 40.14 37.04 38.23 37.96 37.87 37.47 39.06 37.22 37.88 37.71 35.66 30.57 36.24 36.36 36.65 36.26 34.14 36.04 27.24 25.76 22.76 20.67 22.25 25.93 27.30 34.58 36.55 37.67 37.68 36.42 35.26 33.57
51.51 46.70 52.24 54.50 54.81 46.57 34.66 39.18 43.20 43.66 43.82 41.95 40.13 39.36 39.82 39.14 39.00 37.92 37.51 38.23 39.03 38.94 38.72 35.03 33.21 33.78 36.05 33.18 33.00 31.69 30.44 31.32 30.35 26.97 21.91 16.08 22.60 33.66 36.97 36.92 36.35 37.11 37.82 35.15 34.02
49.46 43.50 52.35 54.81 43.69 42.46 39.38 43.26 44.41 42.04 43.91 42.61 41.55 41.57 39.96 39.98 38.74 39.23 38.13 39.06 40.09 39.24 36.34 35.82 32.42 28.11 34.29 37.34 37.74 35.44 33.85 33.06 24.56 26.61 26.02 23.02 24.46 37.86 39.43 37.22 38.65 38.29 39.51 36.34 33.70
48.70 45.88 50.50 51.23 34.71 33.70 43.00 44.88 43.92 42.53 41.81 41.70 40.96 42.23 41.63 38.44 34.44 39.56 38.09 39.94 39.59 39.70 37.81 36.08 29.49 25.22 29.56 33.47 36.31 32.43 34.95 34.97 32.52 27.59 23.99 22.23 25.19 39.83 38.24 38.25 40.06 38.31 38.79 38.46 37.82
48.10 39.04 43.75 42.62 44.11 42.47 41.61 42.51 40.70 43.46 42.57 42.89 42.12 41.42 38.93 37.09 39.27 37.33 37.34 39.28 39.89 39.05 42.42 39.24 30.79 28.32 23.20 28.34 33.73 31.33 35.14 34.85 31.02 23.66 24.25 26.21 29.73 35.93 37.51 36.70 38.25 36.93 38.49 38.12 37.82
48.19 44.12 44.34 34.72 39.05 41.94 42.49 43.69 42.09 40.17 42.23 42.18 39.56 39.94 38.36 34.53 37.26 36.69 37.93 37.11 39.05 41.05 36.18 35.14 29.10 32.01 34.00 36.03 36.48 34.15 34.53 35.05 29.83 28.74 28.28 32.82 29.66 35.50 35.66 34.39 34.34 37.87 39.43 39.25 39.27
45.29 44.48 45.14 42.72 43.78 40.74 40.36 39.95 41.73 43.44 40.94 39.72 38.24 41.43 39.97 36.09 37.84 35.94 38.21 36.23 35.83 35.06 34.66 34.92 29.45 31.85 30.76 35.97 32.99 33.55 35.54 35.71 35.68 32.50 30.98 31.51 30.55 39.83 39.79 38.15 38.04 40.17 39.80 39.32 40.06
49.83 48.18 44.78 41.42 42.56 40.39 40.08 43.01 44.44 44.48 44.04 44.61 41.94 39.87 39.26 40.59 41.48 40.97 40.76 41.75 40.39 35.61 33.18 33.62 31.45 30.08 27.35 33.15 31.53 26.86 33.11 34.66 34.68 34.75 32.73 28.85 36.45 36.02 38.79 39.68 38.70 39.56 40.70 40.50 40.92
MSLP
1018.26 1018.04 1017.72 1017.56 1017.15 1016.89 1016.62 1016.24 1015.93 1015.65 1015.45 1015.04 1014.64 1014.34 1014.09 1013.58 1012.90 1012.68 1013.49 1013.94 1013.53 1012.80 1012.67 1012.53 1010.77 1010.98 1011.28 1013.15 1013.99 1015.64 1019.48 1022.40 1023.13 1023.32 1023.55 1023.23 1023.60 1023.97 1024.25 1024.47 1024.90 1025.22 1025.42 1025.43 1025.35
1018.35 1018.11 1017.90 1017.72 1017.32 1017.07 1016.83 1016.40 1016.08 1015.70 1015.30 1014.95 1014.59 1014.50 1014.10 1013.71 1013.61 1013.66 1013.49 1012.84 1012.37 1012.72 1012.53 1012.76 1012.83 1012.50 1014.03 1015.43 1016.43 1017.57 1021.00 1022.13 1022.34 1022.74 1023.28 1023.54 1023.71 1024.03 1024.71 1025.18 1025.58 1025.53 1025.37 1025.28 1025.45
1018.60 1018.44 1018.05 1017.59 1017.30 1017.09 1016.83 1016.51 1016.26 1015.84 1015.34 1015.00 1014.56 1014.34 1014.21 1013.94 1014.19 1014.87 1013.40 1012.76 1011.78 1012.48 1012.68 1012.70 1013.01 1014.01 1016.00 1017.05 1018.58 1019.51 1021.25 1022.06 1022.40 1022.64 1023.09 1023.76 1024.07 1024.12 1024.69 1025.31 1025.22 1025.42 1025.51 1025.38 1025.58
1018.80 1018.51 1018.24 1017.80 1017.44 1017.17 1016.92 1016.71 1016.36 1016.00 1015.62 1015.35 1014.53 1014.27 1014.10 1014.32 1015.71 1014.99 1014.10 1013.02 1011.92 1012.02 1012.84 1013.34 1014.17 1015.54 1017.69 1019.03 1019.71 1020.64 1021.99 1022.21 1022.89 1023.08 1023.26 1023.66 1023.88 1024.42 1024.42 1024.79 1025.04 1025.07 1025.04 1025.23 1025.37
1019.15 1018.80 1018.35 1017.93 1017.60 1017.37 1017.18 1016.86 1016.55 1016.09 1015.72 1015.29 1014.91 1014.44 1014.23 1015.36 1016.14 1015.04 1014.40 1013.38 1012.80 1012.74 1013.82 1014.43 1015.47 1016.74 1018.46 1019.78 1020.34 1021.52 1022.50 1022.93 1022.96 1023.13 1023.54 1023.55 1023.99 1024.26 1024.69 1024.78 1024.65 1024.61 1024.88 1025.11 1025.17
1019.14 1018.79 1018.51 1018.21 1017.88 1017.51 1017.18 1016.87 1016.43 1016.14 1015.77 1015.71 1015.16 1014.71 1015.22 1015.66 1015.88 1015.47 1014.84 1014.03 1014.12 1013.93 1014.53 1014.64 1016.27 1017.23 1019.02 1020.30 1020.95 1022.00 1022.64 1023.25 1023.24 1023.48 1023.44 1023.88 1024.23 1024.36 1024.65 1024.58 1024.75 1024.69 1024.67 1024.76 1024.78
1019.29 1019.01 1018.74 1018.50 1018.14 1017.66 1017.18 1016.75 1016.44 1016.06 1015.81 1015.79 1015.69 1015.46 1015.85 1016.40 1015.87 1015.54 1015.24 1015.20 1014.96 1014.85 1015.45 1015.97 1016.22 1017.13 1019.15 1020.77 1021.74 1022.51 1023.23 1023.62 1023.67 1023.63 1023.74 1023.87 1024.61 1024.24 1024.28 1024.56 1024.89 1024.72 1024.46 1024.33 1024.18
1019.42 1019.12 1018.88 1018.58 1018.17 1017.71 1017.17 1016.66 1016.27 1016.02 1015.96 1016.08 1015.95 1016.04 1016.37 1015.88 1015.69 1015.56 1015.73 1015.76 1015.42 1015.43 1015.75 1016.14 1016.52 1017.93 1019.51 1020.97 1022.04 1022.85 1023.67 1024.10 1023.77 1023.72 1023.86 1024.12 1024.10 1023.80 1024.31 1024.81 1024.80 1024.56 1024.25 1024.15 1023.98
1019.63 1019.18 1018.82 1018.48 1018.09 1017.72 1017.24 1016.69 1016.11 1015.88 1016.04 1015.98 1016.04 1016.24 1016.65 1015.97 1016.01 1015.82 1015.85 1016.17 1016.12 1015.94 1016.25 1016.40 1017.35 1019.36 1020.60 1021.80 1022.92 1023.42 1023.88 1023.84 1023.58 1023.40 1023.71 1024.32 1023.93 1023.63 1024.38 1024.79 1024.75 1024.39 1024.16 1024.02 1023.75
1019.80 1019.43 1018.92 1018.52 1018.07 1017.67 1016.95 1016.51 1015.81 1015.76 1015.78 1015.90 1016.25 1016.81 1016.92 1016.80 1016.33 1016.23 1015.83 1015.88 1016.35 1016.72 1017.26 1017.84 1019.43 1020.87 1022.01 1022.54 1023.12 1023.13 1023.32 1023.41 1023.29 1023.15 1023.33 1023.94 1023.70 1023.79 1024.13 1024.67 1024.32 1024.13 1024.10 1024.01 1024.07
1019.98 1019.56 1019.12 1018.77 1018.33 1017.82 1016.96 1016.47 1017.41 1017.21 1017.17 1017.19 1017.28 1017.29 1017.01 1016.61 1016.41 1016.52 1016.16 1016.22 1016.77 1017.60 1018.84 1019.88 1020.75 1021.93 1022.16 1022.06 1022.19 1022.38 1022.67 1023.00 1022.86 1022.62 1022.98 1023.21 1023.44 1023.45 1023.69 1024.38 1024.27 1023.97 1023.99 1023.80 1023.53
1020.20 1019.82 1019.40 1018.91 1018.42 1018.05 1017.64 1018.50 1018.93 1018.90 1018.46 1017.63 1017.34 1017.14 1016.82 1016.72 1017.01 1016.97 1016.60 1017.24 1017.89 1019.10 1019.69 1020.70 1021.47 1021.73 1021.75 1021.66 1021.92 1022.26 1022.71 1023.06 1022.67 1022.49 1022.84 1022.82 1023.04 1023.04 1023.38 1023.37 1023.37 1023.34 1023.31 1023.34 1023.48
1020.43 1019.89 1019.39 1018.88 1018.30 1018.18 1018.77 1019.18 1018.81 1018.48 1018.66 1018.06 1017.55 1017.28 1017.09 1017.14 1017.78 1017.74 1017.70 1017.90 1018.70 1019.63 1020.32 1020.86 1021.41 1021.35 1021.52 1021.98 1022.16 1022.69 1022.88 1022.99 1023.07 1022.74 1022.65 1023.05 1023.33 1023.08 1022.84 1022.91 1022.61 1022.68 1022.81 1023.08 1023.46
1020.70 1020.15 1019.58 1018.85 1018.70 1019.05 1019.18 1019.11 1018.70 1018.58 1018.99 1018.51 1017.65 1017.21 1017.09 1017.30 1017.82 1017.68 1017.65 1018.19 1018.75 1019.90 1020.56 1021.17 1021.21 1021.30 1021.51 1021.84 1022.19 1022.45 1022.59 1022.83 1023.13 1023.54 1023.55 1023.40 1024.54 1023.29 1022.71 1022.54 1022.56 1022.67 1022.66 1022.84 1023.02
1020.83 1020.36 1019.83 1019.22 1019.62 1019.77 1019.81 1019.16 1018.77 1018.95 1019.34 1018.46 1017.56 1016.94 1017.04 1017.56 1017.86 1017.76 1017.72 1017.99 1019.00 1019.81 1020.44 1021.41 1021.30 1021.37 1021.62 1021.83 1022.00 1022.25 1022.44 1022.94 1023.50 1024.14 1024.40 1024.19 1024.52 1023.02 1022.57 1022.52 1022.17 1022.08 1022.11 1022.32 1022.76
1020.89 1020.44 1020.08 1019.69 1019.94 1019.90 1019.53 1019.16 1019.18 1019.67 1019.15 1018.26 1017.58 1017.31 1017.47 1017.60 1017.85 1017.99 1018.16 1018.38 1019.09 1019.84 1020.70 1021.28 1021.20 1021.53 1021.68 1021.64 1021.90 1022.01 1022.75 1023.49 1024.17 1025.04 1025.74 1024.69 1024.73 1023.62 1022.82 1022.03 1021.67 1021.60 1021.77 1022.11 1022.74
1020.91 1020.55 1020.24 1020.11 1020.28 1019.74 1019.51 1019.80 1020.50 1020.21 1018.90 1018.48 1017.78 1017.57 1017.65 1017.89 1018.06 1018.33 1019.00 1019.61 1020.33 1020.76 1021.35 1021.60 1021.58 1021.64 1021.70 1021.93 1021.91 1022.48 1023.40 1024.74 1025.88 1026.58 1026.47 1025.30 1025.01 1022.97 1021.90 1021.29 1020.99 1021.27 1021.56 1021.92 1022.51
1020.80 1020.53 1020.26 1020.11 1020.03 1019.86 1020.07 1020.73 1020.75 1019.73 1018.65 1017.84 1017.64 1017.62 1017.84 1018.00 1018.31 1018.67 1019.55 1020.56 1020.97 1021.30 1021.84 1022.21 1021.96 1022.01 1021.97 1022.36 1022.83 1023.30 1024.19 1025.58 1026.82 1027.95 1027.25 1025.85 1025.03 1022.24 1021.17 1020.67 1020.65 1020.91 1021.24 1021.71 1022.39
1020.68 1020.59 1020.55 1020.25 1019.98 1020.03 1020.70 1021.72 1020.82 1019.60 1018.79 1018.07 1017.87 1017.94 1018.11 1018.15 1018.45 1018.98 1019.91 1020.88 1021.40 1021.64 1022.15 1022.45 1022.28 1022.20 1022.24 1022.45 1023.02 1023.42 1024.40 1025.46 1026.87 1028.01 1028.36 1026.34 1024.26 1022.23 1021.23 1020.80 1020.89 1020.96 1021.23 1021.61 1022.16
1021.53 1021.44 1020.99 1020.18 1020.09 1020.52 1021.48 1021.45 1020.29 1019.14 1018.52 1018.20 1018.22 1018.06 1018.37 1018.51 1018.93 1019.48 1020.28 1021.07 1021.50 1021.79 1022.10 1022.77 1022.93 1022.52 1022.60 1022.73 1023.03 1023.49 1024.42 1025.72 1027.18 1028.56 1028.76 1026.95 1025.50 1023.32 1021.83 1021.17 1021.07 1021.15 1021.32 1021.50 1021.97
1021.88 1021.98 1020.82 1020.30 1020.42 1021.45 1021.97 1021.01 1019.74 1018.97 1018.50 1018.61 1018.65 1018.59 1018.72 1018.86 1019.16 1019.68 1020.83 1021.54 1021.61 1022.06 1022.41 1023.10 1023.59 1023.47 1023.20 1023.09 1023.01 1023.81 1024.52 1025.73 1027.08 1028.41 1028.85 1028.12 1025.46 1022.66 1021.50 1021.04 1021.06 1021.10 1021.11 1021.34 1021.77
1022.39 1022.17 1020.99 1020.64 1021.50 1021.99 1021.73 1020.43 1019.67 1019.04 1018.64 1018.67 1018.75 1018.83 1019.08 1019.27 1019.57 1020.14 1021.04 1021.49 1021.91 1022.41 1023.21 1023.94 1024.43 1024.46 1023.64 1022.90 1022.79 1023.30 1024.02 1025.22 1027.16 1028.30 1028.62 1028.18 1024.58 1021.70 1021.04 1020.82 1020.82 1020.96 1020.98 1021.16 1021.36
1023.12 1022.54 1021.48 1021.24 1022.26 1022.45 1021.26 1020.17 1019.49 1019.19 1018.98 1018.96 1019.09 1019.17 1019.29 1019.74 1020.26 1020.69 1021.52 1022.07 1022.35 1022.97 1023.68 1024.43 1025.27 1025.33 1024.23 1023.88 1023.34 1023.55 1023.86 1024.69 1026.19 1027.36 1027.98 1027.70 1024.14 1021.26 1021.01 1021.02 1020.67 1021.02 1020.96 1021.09 1021.08
1023.50 1023.32 1022.58 1022.47 1022.56 1022.15 1021.35 1020.44 1019.80 1019.36 1019.19 1019.21 1019.46 1019.59 1019.89 1020.18 1020.40 1021.13 1022.01 1022.62 1023.02 1023.67 1024.26 1024.68 1025.68 1025.90 1025.64 1024.49 1024.12 1024.05 1023.89 1024.32 1025.42 1026.85 1026.91 1025.30 1023.24 1021.46 1021.28 1021.16 1020.70 1020.97 1020.72 1020.74 1020.75
1023.73 1023.43 1022.90 1023.34 1022.56 1021.93 1021.43 1020.67 1020.17 1019.84 1019.58 1019.44 1019.72 1019.92 1020.35 1020.76 1020.91 1021.32 1022.34 1023.22 1023.84 1024.45 1024.90 1025.48 1026.22 1026.04 1025.31 1024.73 1024.19 1023.66 1023.28 1023.83 1024.56 1024.81 1025.44 1022.86 1023.08 1020.68 1020.66 1020.81 1020.41 1020.28 1020.09 1020.23 1020.32
1023.97 1023.68 1023.11 1023.13 1022.37 1021.80 1021.39 1020.65 1020.11 1019.88 1019.87 1019.96 1020.18 1020.14 1020.54 1021.09 1021.26 1021.57 1022.22 1023.16 1023.76 1024.83 1025.39 1025.86 1026.23 1026.20 1025.47 1024.43 1024.13 1023.16 1022.14 1022.10 1022.50 1023.10 1023.28 1022.46 1021.52 1019.63 1019.31 1019.63 1019.72 1019.65 1019.69 1019.73 1019.59
1024.04 1023.67 1023.58 1023.48 1022.74 1022.37 1021.70 1020.77 1020.09 1019.77 1019.84 1019.64 1020.02 1020.51 1020.84 1021.22 1021.40 1021.55 1021.87 1022.25 1022.82 1024.07 1025.30 1026.04 1026.63 1026.91 1026.07 1025.05 1023.98 1022.17 1020.27 1020.43 1020.52 1020.66 1020.84 1021.34 1019.50 1019.09 1018.99 1018.94 1018.97 1019.04 1019.13 1018.93 1018.87
Wind_Speed
11 12 12 11 11 11 11 10 10 9 9 10 10 8 8 10 9 10 12 8 7 13 9 6 20 14 19 12 11 6 8 5 6 6 6 4 5 3 3 7 5 4 4 6 6
13 13 13 11 10 9 9 9 10 11 12 12 10 7 9 9 5 12 11 15 13 5 9 11 15 17 9 9 7 8 7 7 6 7 6 5 5 7 5 6 4 3 1 6 4
13 12 12 12 12 11 10 10 10 10 12 13 10 6 5 4 8 6 14 22 18 7 4 3 6 10 11 7 8 6 7 6 6 10 9 8 6 1 9 4 4 6 3 2 5
13 12 11 11 11 11 11 11 12 13 13 13 12 7 5 5 6 8 15 19 16 8 7 8 12 8 8 8 5 13 8 7 3 5 6 4 3 5 2 6 9 8 5 3 5
11 11 11 12 12 12 12 12 12 12 13 16 15 9 8 10 3 9 15 14 11 18 6 11 11 7 9 7 12 9 5 7 8 10 7 7 4 6 6 7 8 7 6 7 8
11 12 11 12 12 11 10 11 12 13 14 13 17 6 8 18 6 10 10 12 10 10 11 10 9 15 9 5 6 4 9 5 6 4 3 6 3 3 6 7 7 8 10 10 11
11 11 11 11 10 11 12 13 12 13 14 13 12 4 11 3 4 7 10 6 4 6 8 3 6 9 5 10 3 7 8 5 2 0 2 6 1 8 6 7 9 10 10 10 11
12 11 9 10 9 11 12 13 13 13 11 6 11 6 6 5 5 8 6 6 9 5 7 6 8 10 7 6 5 5 5 3 5 5 2 4 8 7 8 8 11 11 9 8 9
12 12 12 12 11 11 13 14 14 12 5 8 4 7 4 7 5 5 2 3 4 5 7 8 10 7 7 6 5 2 2 3 2 9 4 5 7 5 8 8 10 9 8 6 5
12 12 13 13 14 14 17 8 11 7 3 1 3 8 6 4 4 5 4 2 1 4 7 9 8 6 5 6 1 2 4 3 4 5 5 4 12 4 10 9 12 8 8 5 3
13 13 13 13 14 15 10 6 9 10 11 6 2 5 2 4 4 8 6 4 5 8 5 7 10 4 4 1 2 4 5 2 2 5 3 7 7 7 10 5 9 9 4 2 3
13 13 13 13 13 12 2 7 1 4 4 5 4 4 3 2 6 11 7 8 8 5 2 8 6 1 2 6 7 7 4 4 5 4 3 4 9 4 7 8 7 6 3 3 3
13 14 15 16 14 5 7 3 5 4 5 2 0 1 3 6 3 7 5 2 6 7 7 7 1 5 1 5 5 2 3 2 3 4 4 2 8 1 6 5 4 2 3 4 7
14 13 14 19 7 4 3 8 7 3 6 3 2 2 1 5 6 3 3 2 6 4 4 4 3 3 5 4 2 2 5 1 4 5 2 3 6 5 5 3 3 7 6 6 5
13 14 16 4 2 4 6 7 6 5 6 2 1 2 3 4 2 5 3 5 3 3 5 2 3 5 4 1 0 4 6 5 1 3 3 1 3 8 2 5 6 8 6 3 5
12 13 15 5 3 1 6 6 5 9 1 1 1 1 2 1 1 1 4 6 2 2 5 1 2 2 2 4 5 4 1 4 4 3 3 4 5 7 4 6 5 3 4 5 6
12 12 6 1 3 6 4 5 8 8 2 3 4 3 5 4 0 2 4 6 3 4 3 3 1 3 1 4 5 8 6 4 4 5 6 4 3 11 5 7 4 4 8 6 6
12 6 5 1 3 4 4 7 9 2 2 3 3 0 3 2 1 2 4 2 5 3 2 2 5 1 3 2 2 2 4 6 3 2 6 3 6 8 6 4 3 5 5 4 4
11 3 3 3 4 3 7 6 7 2 3 1 2 2 2 1 3 1 3 3 0 3 3 2 3 0 1 1 2 2 3 4 3 1 2 4 7 8 4 4 2 6 3 4 4
3 3 3 4 3 6 7 5 2 1 3 5 2 4 5 4 2 4 2 2 2 1 3 1 3 4 1 2 1 1 3 3 4 1 5 7 6 7 6 8 5 7 7 6 5
4 4 4 3 4 6 4 5 2 2 5 4 2 4 3 2 5 2 2 2 1 1 4 2 4 5 2 4 6 1 1 2 4 5 4 3 9 8 8 7 6 6 7 6 6
2 3 4 3 5 1 1 2 2 1 3 2 0 1 2 4 2 3 4 2 0 2 2 2 4 4 7 2 1 4 5 5 6 3 3 4 11 5 8 7 5 6 6 5 3
2 2 3 5 4 3 5 1 1 2 2 1 2 2 2 2 2 2 3 2 2 3 6 3 2 4 8 6 5 2 4 4 5 4 5 5 10 5 3 5 6 6 7 6 6
3 3 5 5 1 2 1 3 2 1 2 3 2 3 4 2 2 3 3 3 2 2 5 5 3 7 8 7 3 5 4 6 6 4 5 11 10 12 7 9 10 8 9 8 6
2 3 4 3 4 2 0 2 0 2 2 1 1 4 4 2 4 2 3 2 2 3 2 4 3 3 6 11 7 9 13 10 10 8 9 17 10 17 9 9 9 6 4 5 7
2 3 5 1 4 1 2 2 2 2 7 4 3 3 3 5 4 3 6 5 6 2 5 0 3 3 6 7 5 10 13 11 11 8 13 10 15 15 12 6 6 8 7 8 8
2 2 4 4 2 3 4 5 4 1 1 3 7 3 2 4 3 3 2 4 8 10 7 6 3 2 6 6 10 9 7 5 4 5 8 8 17 2 7 8 7 8 8 10 9
Wind_Direction
27 17 16 355 3 357 353 360 338 334 341 341 344 346 347 340 359 36 31 246 271 297 322 266 33 52 60 65 47 74 72 108 152 140 162 181 95 16 57 90 41 70 118 193 215
26 12 7 348 4 356 352 356 341 349 352 345 344 343 341 359 43 34 278 312 309 235 9 25 58 54 53 15 32 70 97 173 174 136 135 129 124 139 90 72 72 93 142 159 124
23 7 357 357 1 353 355 357 340 349 351 341 329 330 331 352 44 316 301 318 319 112 68 27 108 62 58 29 355 16 108 106 67 107 124 140 78 126 136 75 175 153 148 152 122
14 2 354 358 357 351 351 340 344 352 348 343 346 350 84 60 71 282 320 331 0 69 71 51 34 56 71 63 344 87 52 86 101 124 93 98 97 79 97 187 161 157 174 195 196
10 1 1 1 357 351 346 346 345 351 353 1 9 357 48 54 39 282 328 345 23 64 62 96 70 77 82 95 60 70 92 56 98 94 100 94 108 155 153 171 165 175 193 229 233
4 4 3 1 354 344 341 339 343 343 347 2 358 6 60 72 288 319 336 24 18 55 41 60 104 115 101 73 80 107 95 98 58 85 104 114 152 108 222 180 198 196 218 228 230
3 359 358 358 349 345 340 337 335 333 336 354 8 49 60 72 314 330 15 10 23 56 67 38 148 85 104 81 89 109 74 55 356 243 118 121 276 233 193 195 222 232 238 243 237
354 352 351 347 346 345 337 328 320 318 323 2 330 58 83 305 310 28 3 4 14 58 91 85 77 92 83 116 57 68 60 87 249 179 171 114 268 235 188 185 232 245 252 257 262
350 346 351 349 348 339 327 314 302 303 301 310 58 92 15 329 359 314 42 355 325 20 43 62 54 81 37 75 36 6 222 194 255 199 135 172 270 226 192 207 240 251 255 285 308
350 346 342 344 340 344 321 298 307 342 44 63 46 51 352 304 291 332 299 292 102 82 20 36 54 76 47 69 24 296 173 188 192 244 191 193 265 244 205 204 234 254 273 314 284
348 345 340 339 335 330 343 24 18 357 34 120 157 115 246 270 37 346 343 23 68 57 83 15 71 66 331 120 135 114 88 88 242 238 180 229 253 232 209 229 258 261 267 207 73
345 341 338 334 326 324 23 80 125 211 23 18 50 33 18 85 33 338 13 69 55 37 75 30 57 252 306 24 78 43 44 336 285 210 175 259 274 264 186 228 219 227 165 213 220
344 341 341 337 323 43 78 59 299 113 100 336 207 11 324 63 48 317 42 15 96 50 47 102 255 321 179 36 65 65 124 272 250 319 265 28 325 131 239 246 142 88 211 241 214
342 339 339 327 55 313 50 320 352 66 75 323 325 336 335 118 17 299 7 104 34 139 136 90 329 4 60 74 90 123 203 222 311 33 255 96 275 274 238 162 214 247 239 254 183
345 340 340 18 236 47 305 324 343 57 62 221 313 244 352 107 200 340 322 44 91 58 82 273 14 18 44 258 165 227 178 191 255 298 9 318 76 270 165 247 277 273 278 245 184
342 339 338 30 35 250 318 336 49 46 34 342 122 178 80 23 191 258 17 42 47 104 47 98 333 80 263 281 230 299 53 38 53 58 15 251 119 277 195 210 254 282 293 247 183
334 334 355 355 283 319 340 46 41 98 185 179 216 176 197 185 246 106 74 24 60 48 358 4 326 306 303 335 4 27 55 3 6 10 225 303 39 242 230 229 225 250 250 234 191
320 335 317 225 308 354 44 52 75 228 178 179 155 279 187 142 283 169 112 46 21 60 90 90 321 335 338 104 208 335 117 144 273 252 273 343 244 262 215 188 162 243 239 207 178
319 352 359 289 330 55 68 51 192 316 296 33 136 191 217 206 175 104 88 132 276 59 116 43 282 37 44 355 107 336 51 169 112 323 26 256 290 322 192 192 249 308 326 260 199
57 21 298 290 28 57 73 212 191 34 17 21 225 167 187 220 169 138 141 337 142 69 120 183 311 205 180 23 358 62 180 48 8 11 291 291 290 241 224 242 269 298 306 268 227
49 47 264 6 60 48 136 231 142 74 80 57 349 356 10 205 185 183 112 324 73 177 73 51 122 295 100 200 190 3 2 59 124 138 181 292 269 223 218 219 243 282 282 258 253
75 51 292 40 55 48 153 238 332 168 52 2 77 323 56 2 353 32 156 214 76 97 91 30 143 256 234 267 219 187 203 142 118 234 220 154 273 263 229 199 199 289 279 277 263
74 260 325 78 114 314 293 220 75 62 83 272 340 31 63 37 352 84 132 216 134 102 166 166 330 343 334 352 349 241 226 167 115 80 212 145 262 305 213 229 253 298 278 264 260
80 22 329 39 134 150 321 281 231 225 184 110 145 73 31 324 218 202 164 213 93 92 126 98 158 182 199 220 186 264 250 209 150 140 201 226 276 268 260 250 284 290 265 250 252
48 256 202 278 317 190 334 265 66 267 279 155 343 205 178 265 329 232 94 80 51 131 77 117 213 239 245 263 260 253 259 229 203 210 195 265 218 263 247 240 251 261 245 248 253
77 39 355 283 300 43 48 241 246 236 158 243 205 190 198 200 223 260 133 185 201 180 174 138 265 301 285 272 295 275 262 242 233 216 244 271 276 271 269 227 251 237 250 261 251
317 333 99 285 356 77 242 233 241 262 146 199 178 124 86 175 204 238 240 181 174 160 183 153 158 58 271 319 325 315 258 190 205 189 183 212 244 258 270 251 253 249 235 250 245